Regional Weather Roundup
Issued by NWS Jackson, KY

Home | Current Version | Previous Version | Text Only | Print | Product List | Glossary Off
Versions: 1 2 3 4 5 6 7 8 9 10 11 12 13 14 15 16 17 18 19 20 21 22 23 24 25 26 27 28 29 30 31 32 33 34 35 36 37 38 39 40 41 42 43 44 45 46 47 48 49 50

000
ASUS43 KJKL 210210
RWRJKL

EAST KENTUCKY HOURLY WEATHER ROUNDUP
NATIONAL WEATHER SERVICE JACKSON KY
1000 PM EDT SAT SEP 20 2014

NOTE: "FAIR" INDICATES FEW OR NO CLOUDS BELOW 12,000 FEET WITH
NO SIGNIFICANT WEATHER AND/OR OBSTRUCTIONS TO VISIBILITY.

* THESE REPORTS ARE NOT UNDER NWS QUALITY CONTROL AND MAY NOT
  REPORT WEATHER SUCH AS PRECIPITATION AND FOG.

KYZ079-080-083-085-087-088-110-112-115-119-120-210300
...EASTERN KENTUCKY...

CITY           SKY/WX    TMP DP  RH WIND       PRES   REMARKS
JACKSON        CLEAR     70  63  78 CALM      30.06R
LONDON         CLEAR     69  63  81 CALM      30.06R
SOMERSET*      MOCLDY    68  64  88 CALM      30.05F
MONTICELLO*    PTCLDY    65  63  93 CALM      30.06R
WILLIAMSBURG*  CLEAR     64  64 100 CALM      30.07
MIDDLESBORO*   CLEAR     65  61  87 CALM      30.08R
HARLAN APT*    CLEAR     63  63 100 MISG      30.09R
BLACK MTN*       N/A     63  55  77 SW5         N/A
PIKEVILLE APT* CLEAR     70  66  88 CALM      30.07R
BIG SANDY*     CLEAR     69  66  90 CALM      30.06R
MOREHEAD APT*  CLEAR     70  64  83 S6        30.05R
$$

KYZ035-036-041-042-044-050-067-078-099-210300
...CENTRAL KENTUCKY...

CITY           SKY/WX    TMP DP  RH WIND       PRES   REMARKS
MT STERLING*   CLEAR     70  64  83 SW5       30.04S
FLEMING/MASON* CLEAR     70  64  83 S5        30.02S
DANVILLE*      CLEAR     68  64  88 CALM      30.05R
RICHMOND*      CLEAR     70  63  78 S3        30.04R
LEXINGTON      CLEAR     72  64  76 S8        30.02R
FRANKFORT      CLEAR     68  64  87 S3        30.00R
$$

KYZ091>093-OHZ055-061-077-WVZ005-015-034-035-042-210300
...SOUTHERN OHIO/WEST VIRGINIA...

CITY           SKY/WX    TMP DP  RH WIND       PRES   REMARKS
COVINGTON      MOCLDY    68  64  87 S7        29.97F
COLUMBUS       MOCLDY    76  61  59 SW9       29.96S
DAYTON         CLOUDY    74  64  71 S10       29.96F
WILMINGTON     CLOUDY    68  62  81 S6        29.98F
HUNTINGTON     CLEAR     66  64  93 SE5       30.01S
CHARLESTON     CLEAR     67  65  93 CALM      30.03R
PINEVILLE*     CLOUDY    65  65 100 MISG      30.14R
BECKLEY        CLEAR     64  56  75 CALM      30.12R
BLUEFIELD      CLEAR     66  54  65 W3        30.14R
$$

VAZ002-007-008-TNZ017-027-036-066-071-210300
...SOUTHWEST VIRGINIA/EAST TENNESSEE...

CITY           SKY/WX    TMP DP  RH WIND       PRES   REMARKS
WISE*          CLEAR     63  54  72 SW3       30.14R
JONESVILLE*    CLEAR     63  61  94 CALM      30.10R
ABINGDON*      CLEAR     64  59  84 CALM      30.10R
BRISTOL        CLEAR     62  56  80 CALM      30.07R
KNOXVILLE      CLEAR     72  59  63 CALM      30.04R
OAK RIDGE      CLEAR     70  64  81 CALM      30.06R
CROSSVILLE     CLEAR     67  62  84 W3        30.10R
NASHVILLE      PTCLDY    73  66  78 S3        30.03R
$$

...KEY TO REMARKS...
VSB - VISIBILITY IN MILES
WCI - WIND CHILL INDEX
HX  - HEAT INDEX

$$


USA.gov is the U.S. government's official web portal to all federal, state and local government web resources and services.